GW1851 Weather Reports


Display with metric or nautical units.
time (UTC)temp
F
wind
direction
speed
MPH
gust
MPH
rain 1hr
in
rain 24hr
in
rain mn
in
humidity
%
barometer
mb
20260904164901 93 232 3.0 5.0 0.00 0.00 0.00 63 1015.9
20260904164400 93 238 0.0 1.0 0.00 0.00 0.00 65 1015.7
20260904163857 92 216 1.0 2.0 0.00 0.00 0.00 65 1015.6
20260904163356 93 246 2.0 2.0 0.00 0.00 0.00 67 1015.6
20260904162856 93 242 3.0 5.0 0.00 0.00 0.00 65 1015.5
20260904162352 93 214 1.0 1.0 0.00 0.00 0.00 67 1015.6
20260904161847 92 221 0.0 0.0 0.00 0.00 0.00 66 1015.8
20260904161342 91 241 3.0 3.0 0.00 0.00 0.00 65 1015.5
20260904160838 92 357 1.0 2.0 0.00 0.00 0.00 65 1015.5
20260904160333 92 237 1.0 2.0 0.00 0.00 0.00 65 1015.7
20260904155828 93 174 1.0 1.0 0.00 0.00 0.00 64 1015.5
20260904155322 92 211 1.0 1.0 0.00 0.00 0.00 67 1015.8
20260904154821 92 234 0.0 1.0 0.00 0.00 0.00 66 1015.4
20260904154316 91 234 2.0 2.0 0.00 0.00 0.00 66 1015.7
20260904153812 91 236 1.0 1.0 0.00 0.00 0.00 66 1015.4
20260904153307 91 238 2.0 2.0 0.00 0.00 0.00 68 1015.7
20260904152803 90 215 0.0 1.0 0.00 0.00 0.00 68 1015.5
20260904152258 91 244 4.0 6.0 0.00 0.00 0.00 67 1015.5
20260904151753 91 220 0.0 1.0 0.00 0.00 0.00 70 1015.4
20260904151252 89 195 0.0 0.0 0.00 0.00 0.00 68 1015.4
20260904150748 89 236 3.0 3.0 0.00 0.00 0.00 69 1015.6
20260904150243 89 143 1.0 2.0 0.00 0.00 0.00 70 1015.5
20260904145741 88 221 1.0 2.0 0.00 0.00 0.00 70 1015.4
20260904145237 88 218 1.0 1.0 0.00 0.00 0.00 71 1015.3
20260904144732 88 238 2.0 3.0 0.00 0.00 0.00 70 1015.3
20260904144228 87 207 0.0 0.0 0.00 0.00 0.00 72 1015.4
20260904143723 87 245 2.0 3.0 0.00 0.00 0.00 73 1015.4
20260904143220 87 226 1.0 1.0 0.00 0.00 0.00 73 1015.2
20260904142716 87 239 3.0 5.0 0.00 0.00 0.00 72 1015.1
20260904142212 87 233 1.0 2.0 0.00 0.00 0.00 71 1015.0
20260904141711 87 239 2.0 2.0 0.00 0.00 0.00 72 1014.8
20260904141207 87 240 3.0 3.0 0.00 0.00 0.00 73 1015.1
20260904140702 86 214 1.0 2.0 0.00 0.00 0.00 73 1015.0
20260904140157 86 226 1.0 1.0 0.00 0.00 0.00 75 1014.7
20260904135656 85 211 1.0 2.0 0.00 0.00 0.00 76 1014.7
20260904135152 85 216 2.0 2.0 0.00 0.00 0.00 76 1015.1
20260904134648 85 205 0.0 0.0 0.00 0.00 0.00 78 1015.0
20260904134147 84 230 1.0 2.0 0.00 0.00 0.00 78 1014.7
20260904133642 84 217 1.0 1.0 0.00 0.00 0.00 78 1015.1
20260904133137 84 210 0.0 1.0 0.00 0.00 0.00 76 1014.8
20260904132637 84 217 1.0 1.0 0.00 0.00 0.00 78 1014.7
20260904132132 82 214 0.0 0.0 0.00 0.00 0.00 81 1014.7
20260904131632 83 212 0.0 0.0 0.00 0.00 0.00 80 1014.8
20260904131128 82 214 0.0 0.0 0.00 0.00 0.00 81 1014.5
20260904130627 80 214 0.0 0.0 0.00 0.00 0.00 83 1014.6
20260904130122 80 218 0.0 0.0 0.00 0.00 0.00 85 1014.6
20260904125618 78 207 0.0 0.0 0.00 0.00 0.00 88 1014.4
20260904125113 77 211 0.0 0.0 0.00 0.00 0.00 91 1014.3
20260904124608 76 219 0.0 0.0 0.00 0.00 0.00 92 1014.6
20260904124103 76 220 0.0 0.0 0.00 0.00 0.00 93 1014.5
20260904123558 75 220 0.0 0.0 0.00 0.00 0.00 94 1014.3
20260904123053 75 220 0.0 0.0 0.00 0.00 0.00 95 1014.1
20260904122548 75 220 0.0 0.0 0.00 0.00 0.00 95 1014.4
20260904122043 75 220 0.0 0.0 0.00 0.00 0.00 95 1014.4
20260904121538 74 220 0.0 0.0 0.00 0.00 0.00 95 1014.3
20260904121034 74 220 0.0 0.0 0.00 0.00 0.00 96 1014.4
20260904120530 74 220 0.0 0.0 0.00 0.00 0.00 96 1014.2
20260904120026 74 220 0.0 0.0 0.00 0.00 0.00 96 1014.3
20260904115521 74 220 0.0 0.0 0.00 0.00 0.00 96 1014.4
20260904115021 74 220 0.0 0.0 0.00 0.00 0.00 96 1014.3
20260904114516 73 220 0.0 0.0 0.00 0.00 0.00 97 1014.3
20260904114010 73 220 0.0 0.0 0.00 0.00 0.00 97 1014.1
20260904113510 74 220 0.0 0.0 0.00 0.00 0.00 96 1014.0
20260904113004 74 220 0.0 0.0 0.00 0.00 0.00 96 1014.0
20260904112459 73 220 0.0 0.0 0.00 0.00 0.00 97 1014.1
20260904111955 74 220 0.0 0.0 0.00 0.00 0.00 97 1013.9
20260904111450 74 220 0.0 0.0 0.00 0.00 0.00 97 1013.8
20260904110946 74 220 0.0 0.0 0.00 0.00 0.00 97 1013.7
20260904110445 74 219 0.0 0.0 0.00 0.00 0.00 97 1013.8
20260904105940 74 219 0.0 0.0 0.00 0.00 0.00 97 1013.9
20260904105435 74 219 0.0 0.0 0.00 0.00 0.00 97 1013.9
20260904104931 74 217 0.0 0.0 0.00 0.00 0.00 97 1014.1
20260904104430 74 217 0.0 0.0 0.00 0.00 0.00 97 1014.0
20260904103927 74 217 0.0 0.0 0.00 0.00 0.00 96 1014.1
20260904103422 74 217 0.0 0.0 0.00 0.00 0.00 96 1014.2
20260904102919 74 217 0.0 0.0 0.00 0.00 0.00 96 1014.1
20260904102414 74 216 0.0 0.0 0.00 0.00 0.00 96 1014.1
20260904101909 74 216 0.0 0.0 0.00 0.00 0.00 96 1014.1
20260904101406 74 211 0.0 0.0 0.00 0.00 0.00 96 1013.9
20260904100901 74 211 0.0 0.0 0.00 0.00 0.00 95 1013.9
20260904100357 74 211 0.0 0.0 0.00 0.00 0.00 95 1013.8
20260904095857 75 211 0.0 0.0 0.00 0.00 0.00 95 1013.7
20260904095352 75 211 0.0 0.0 0.00 0.00 0.00 94 1014.0
20260904094846 75 211 0.0 0.0 0.00 0.00 0.00 94 1013.6
20260904094342 75 211 0.0 0.0 0.00 0.00 0.00 93 1013.7
20260904093838 75 212 0.0 0.0 0.00 0.00 0.00 93 1013.5
20260904093338 75 212 0.0 0.0 0.00 0.00 0.00 93 1013.6
20260904092833 75 212 0.0 0.0 0.00 0.00 0.00 93 1013.5
20260904092330 75 212 0.0 0.0 0.00 0.00 0.00 93 1013.4
20260904091825 75 212 0.0 0.0 0.00 0.00 0.00 92 1013.3
20260904091321 76 213 0.0 0.0 0.00 0.00 0.00 92 1013.2
20260904090815 76 215 0.0 0.0 0.00 0.00 0.00 92 1013.3
20260904090312 76 215 0.0 0.0 0.00 0.00 0.00 91 1013.4
20260904085807 77 215 0.0 0.0 0.00 0.00 0.00 89 1013.2
20260904085305 77 215 0.0 0.0 0.00 0.00 0.00 89 1013.1
20260904084756 77 219 0.0 0.0 0.00 0.00 0.00 89 1013.4
20260904084252 77 216 0.0 0.0 0.00 0.00 0.00 89 1013.0
20260904083748 76 212 0.0 0.0 0.00 0.00 0.00 90 1013.0
20260904083245 76 217 0.0 0.0 0.00 0.00 0.00 91 1013.2
20260904082745 75 216 1.0 1.0 0.00 0.00 0.00 94 1013.1
20260904082239 74 213 0.0 0.0 0.00 0.00 0.00 97 1013.4
20260904081735 74 213 0.0 0.0 0.00 0.00 0.00 97 1013.3
20260904081231 74 213 0.0 0.0 0.00 0.00 0.00 97 1012.9
20260904080726 75 213 0.0 0.0 0.00 0.00 0.00 97 1013.3
20260904080222 74 213 0.0 0.0 0.00 0.00 0.00 97 1013.2
20260904075718 75 213 0.0 0.0 0.00 0.00 0.00 96 1013.2
20260904075212 75 213 0.0 0.0 0.00 0.00 0.00 96 1013.4
20260904074706 75 213 0.0 0.0 0.00 0.00 0.00 96 1013.5
20260904074201 75 213 0.0 0.0 0.00 0.00 0.00 96 1013.4
20260904073656 75 213 0.0 0.0 0.00 0.00 0.00 95 1013.6
20260904073152 75 213 0.0 0.0 0.00 0.00 0.00 95 1013.5
20260904072648 76 213 0.0 0.0 0.00 0.00 0.00 95 1013.8
20260904072142 76 213 0.0 0.0 0.00 0.00 0.00 94 1013.5
20260904071638 76 213 0.0 0.0 0.00 0.00 0.00 93 1013.6
20260904071133 76 213 0.0 0.0 0.00 0.00 0.00 92 1013.7
20260904070632 77 213 0.0 0.0 0.00 0.00 0.00 91 1013.6
20260904070127 77 213 0.0 0.0 0.00 0.00 0.00 91 1013.8
20260904065626 78 213 0.0 0.0 0.00 0.00 0.00 89 1013.8
20260904065124 78 213 0.0 0.0 0.00 0.00 0.00 86 1013.8
20260904064618 78 213 0.0 0.0 0.00 0.00 0.00 86 1013.8
20260904064113 78 215 0.0 0.0 0.00 0.00 0.00 86 1013.9
20260904063609 78 213 0.0 0.0 0.00 0.00 0.00 86 1013.9
20260904063104 78 213 0.0 0.0 0.00 0.00 0.00 87 1013.9
20260904062600 77 214 0.0 0.0 0.00 0.00 0.00 88 1013.9
20260904062056 77 211 0.0 0.0 0.00 0.00 0.00 90 1013.7
20260904061551 77 211 0.0 0.0 0.00 0.00 0.00 91 1014.0
20260904061048 76 211 0.0 0.0 0.00 0.00 0.00 94 1013.9
20260904060544 76 211 0.0 0.0 0.00 0.00 0.00 96 1013.6
20260904060039 76 211 0.0 0.0 0.00 0.00 0.00 97 1013.8
20260904055534 76 211 0.0 0.0 0.00 0.00 0.00 97 1013.8
20260904055030 76 211 0.0 0.0 0.00 0.00 0.00 97 1014.2
20260904054525 76 211 0.0 0.0 0.00 0.00 0.00 96 1014.0
20260904054021 77 211 0.0 0.0 0.00 0.00 0.00 96 1013.8
20260904053520 77 211 0.0 0.0 0.00 0.00 0.00 96 1014.0
20260904053016 77 211 0.0 0.0 0.00 0.00 0.00 96 1013.9
20260904052512 77 211 0.0 0.0 0.00 0.00 0.00 96 1014.0
20260904052008 77 211 0.0 0.0 0.00 0.00 0.00 96 1014.0
20260904051505 77 211 0.0 0.0 0.00 0.00 0.00 96 1013.8
20260904051003 77 211 0.0 0.0 0.00 0.00 0.00 96 1013.9
20260904050500 77 211 0.0 0.0 0.00 0.00 0.00 96 1013.8
20260904045955 77 211 0.0 0.0 0.00 0.00 0.00 95 1013.8
20260904045450 77 211 0.0 0.0 0.00 0.00 0.00 96 1013.7
20260904044944 77 211 0.0 0.0 0.00 0.00 0.00 95 1013.9
20260904044441 77 211 0.0 0.0 0.00 0.00 0.00 95 1014.0
20260904043937 77 211 0.0 0.0 0.00 0.00 0.00 95 1013.8
20260904043433 78 211 0.0 0.0 0.00 0.00 0.00 94 1014.0
20260904042929 78 211 0.0 0.0 0.00 0.00 0.00 94 1013.9
20260904042425 78 211 0.0 0.0 0.00 0.00 0.00 94 1013.6
20260904041919 78 211 0.0 0.0 0.00 0.00 0.00 94 1013.9
20260904041416 79 211 0.0 0.0 0.00 0.00 0.00 94 1013.6
20260904040912 79 211 0.0 0.0 0.00 0.00 0.00 93 1013.6
20260904040406 79 211 0.0 0.0 0.00 0.00 0.00 93 1013.5
20260904035902 79 211 0.0 0.0 0.00 0.00 0.00 92 1013.7
20260904035358 79 211 0.0 0.0 0.00 0.00 0.00 93 1013.6
20260904034856 79 211 0.0 0.0 0.00 0.00 0.00 92 1013.7
20260904034347 79 211 0.0 0.0 0.00 0.00 0.00 92 1013.5
20260904033843 79 211 0.0 0.0 0.00 0.00 0.00 91 1013.7
20260904033339 79 211 0.0 0.0 0.00 0.00 0.00 91 1013.7
20260904032835 80 211 0.0 0.0 0.00 0.00 0.00 90 1013.6
20260904032335 80 211 0.0 0.0 0.00 0.00 0.00 90 1013.4
20260904031828 80 211 0.0 0.0 0.00 0.00 0.00 89 1013.5
20260904031324 81 211 0.0 0.0 0.00 0.00 0.00 88 1013.2
20260904030820 81 211 0.0 0.0 0.00 0.00 0.00 88 1013.5
20260904030315 81 211 0.0 0.0 0.00 0.00 0.00 88 1013.3
20260904025811 82 211 0.0 0.0 0.00 0.00 0.00 88 1013.4
20260904025307 82 211 0.0 0.0 0.00 0.00 0.00 85 1013.2
20260904024807 82 211 0.0 0.0 0.00 0.00 0.00 85 1013.3
20260904024302 82 211 0.0 0.0 0.00 0.00 0.00 85 1013.2
20260904023758 83 211 0.0 0.0 0.00 0.00 0.00 83 1013.2
20260904023254 82 216 0.0 0.0 0.00 0.00 0.00 83 1013.0
20260904022753 82 208 0.0 0.0 0.00 0.00 0.00 85 1013.0
20260904022250 82 214 0.0 0.0 0.00 0.00 0.00 88 1012.8
20260904021746 83 214 0.0 0.0 0.00 0.00 0.00 87 1013.0
20260904021241 83 214 0.0 0.0 0.00 0.00 0.00 83 1013.0
20260904020737 82 217 0.0 0.0 0.00 0.00 0.00 85 1012.9
20260904020236 82 217 0.0 0.0 0.00 0.00 0.00 87 1012.9
20260904015735 82 217 0.0 0.0 0.00 0.00 0.00 89 1012.8
20260904015231 82 217 0.0 0.0 0.00 0.00 0.00 91 1012.9
20260904014729 82 217 0.0 0.0 0.00 0.00 0.00 90 1012.8
20260904014224 82 217 0.0 0.0 0.00 0.00 0.00 90 1012.8
20260904013720 82 217 0.0 0.0 0.00 0.00 0.00 89 1012.8
20260904013216 82 217 0.0 0.0 0.00 0.00 0.00 89 1012.6
20260904012712 82 217 0.0 0.0 0.00 0.00 0.00 90 1012.8
20260904012210 83 217 0.0 0.0 0.00 0.00 0.00 91 1012.9
20260904011705 83 217 0.0 0.0 0.00 0.00 0.00 91 1012.7
20260904011201 83 217 0.0 0.0 0.00 0.00 0.00 89 1012.4
20260904010655 83 217 0.0 0.0 0.00 0.00 0.00 89 1012.7
20260904010152 83 217 0.0 0.0 0.00 0.00 0.00 89 1012.6
20260904005647 84 217 0.0 0.0 0.00 0.00 0.00 88 1012.5
20260904005142 84 217 0.0 0.0 0.00 0.00 0.00 88 1012.7
20260904004637 84 217 0.0 0.0 0.00 0.00 0.00 88 1012.5
20260904004132 85 217 0.0 0.0 0.00 0.00 0.00 86 1012.4
20260904003628 85 217 0.0 0.0 0.00 0.00 0.00 86 1012.6
20260904003124 86 217 0.0 0.0 0.00 0.00 0.00 85 1012.6
20260904002619 86 217 0.0 0.0 0.00 0.00 0.00 84 1012.6
20260904002114 87 217 0.0 0.0 0.00 0.00 0.00 83 1012.6
20260904001609 87 217 0.0 0.0 0.00 0.00 0.00 82 1012.6
20260904001108 88 217 0.0 0.0 0.00 0.00 0.00 81 1012.5
20260904000603 88 217 0.0 0.0 0.00 0.00 0.00 79 1012.3
20260904000059 89 217 0.0 0.0 0.00 0.00 0.00 77 1012.7
20260903235558 89 217 0.0 0.0 0.00 0.00 0.00 75 1012.4
20260903235055 89 217 0.0 0.0 0.00 0.00 0.00 75 1012.6
20260903234550 90 217 0.0 0.0 0.00 0.00 0.00 73 1012.5
20260903234045 90 217 0.0 0.0 0.00 0.00 0.00 72 1012.8
20260903233541 90 217 0.0 0.0 0.00 0.00 0.00 74 1012.5
20260903233036 91 217 0.0 0.0 0.00 0.00 0.00 71 1012.5
20260903232532 91 217 0.0 0.0 0.00 0.00 0.00 70 1012.7
20260903232027 91 217 0.0 0.0 0.00 0.00 0.00 70 1012.6
20260903231521 92 217 0.0 0.0 0.00 0.00 0.00 69 1012.6
20260903231015 92 217 0.0 0.0 0.00 0.00 0.00 67 1012.8
20260903230512 92 217 0.0 0.0 0.00 0.00 0.00 67 1012.8
20260903230010 93 217 0.0 0.0 0.00 0.00 0.00 65 1013.0
20260903225503 93 217 0.0 0.0 0.00 0.00 0.00 66 1012.9
20260903224959 93 219 0.0 0.0 0.00 0.00 0.00 64 1013.1
20260903224455 93 219 0.0 0.0 0.00 0.00 0.00 65 1013.1
20260903223951 93 214 0.0 0.0 0.00 0.00 0.00 63 1013.0
20260903223450 93 217 0.0 0.0 0.00 0.00 0.00 62 1013.0
20260903222949 94 217 0.0 0.0 0.00 0.00 0.00 60 1012.9
20260903222444 94 212 0.0 0.0 0.00 0.00 0.00 58 1013.0
20260903221943 94 209 0.0 0.0 0.00 0.00 0.00 60 1013.0
20260903221438 94 218 0.0 0.0 0.00 0.00 0.00 61 1013.0
20260903220935 94 215 0.0 0.0 0.00 0.00 0.00 60 1012.9
20260903220436 95 217 0.0 1.0 0.00 0.00 0.00 58 1013.1
20260903215933 95 218 1.0 1.0 0.00 0.00 0.00 60 1012.9
20260903215430 95 213 0.0 0.0 0.00 0.00 0.00 59 1013.0
20260903214928 95 215 0.0 1.0 0.00 0.00 0.00 58 1013.0
20260903214424 95 218 1.0 1.0 0.00 0.00 0.00 56 1013.1
20260903213923 96 215 0.0 1.0 0.00 0.00 0.00 58 1013.0
20260903213419 96 206 0.0 0.0 0.00 0.00 0.00 57 1012.9
20260903212915 96 211 0.0 1.0 0.00 0.00 0.00 56 1012.9
20260903212411 96 196 0.0 0.0 0.00 0.00 0.00 60 1013.1
20260903211910 96 214 1.0 1.0 0.00 0.00 0.00 57 1012.9
20260903211406 96 207 1.0 2.0 0.00 0.00 0.00 56 1013.0
20260903210902 96 220 2.0 2.0 0.00 0.00 0.00 55 1013.1
20260903210402 96 217 1.0 1.0 0.00 0.00 0.00 56 1013.1
20260903205857 97 218 1.0 1.0 0.00 0.00 0.00 59 1013.1
20260903205356 96 216 0.0 0.0 0.00 0.00 0.00 57 1013.2
20260903204851 99 214 1.0 2.0 0.00 0.00 0.00 53 1013.1
20260903204347 99 219 1.0 2.0 0.00 0.00 0.00 53 1013.2
20260903203843 98 234 2.0 2.0 0.00 0.00 0.00 55 1013.5
20260903203339 98 214 0.0 1.0 0.00 0.00 0.00 55 1013.3
20260903202837 98 203 1.0 1.0 0.00 0.00 0.00 55 1013.3
20260903202334 99 242 1.0 3.0 0.00 0.00 0.00 52 1013.4
20260903201834 99 222 1.0 1.0 0.00 0.00 0.00 53 1013.2
20260903201329 98 232 3.0 3.0 0.00 0.00 0.00 53 1013.2
20260903200827 99 216 1.0 1.0 0.00 0.00 0.00 54 1013.1
20260903200323 100 245 1.0 2.0 0.00 0.00 0.00 53 1013.3
20260903195818 99 219 0.0 0.0 0.00 0.00 0.00 55 1013.1
20260903195314 98 275 0.0 1.0 0.00 0.00 0.00 54 1013.4
20260903194809 99 211 0.0 0.0 0.00 0.00 0.00 54 1013.3
20260903194305 99 219 1.0 1.0 0.00 0.00 0.00 53 1013.2
20260903193800 98 227 2.0 2.0 0.00 0.00 0.00 56 1013.4
20260903193256 98 221 1.0 1.0 0.00 0.00 0.00 56 1013.4
20260903192751 98 226 3.0 3.0 0.00 0.00 0.00 55 1013.3
20260903192247 98 243 1.0 1.0 0.00 0.00 0.00 55 1013.5
20260903191743 97 232 2.0 2.0 0.00 0.00 0.00 57 1013.6
20260903191239 98 230 1.0 1.0 0.00 0.00 0.00 58 1013.6
20260903190733 98 215 0.0 0.0 0.00 0.00 0.00 57 1013.7
20260903190232 97 234 3.0 3.0 0.00 0.00 0.00 55 1013.8
20260903185728 98 215 1.0 2.0 0.00 0.00 0.00 57 1013.8
20260903185222 98 220 0.0 0.0 0.00 0.00 0.00 55 1013.8
20260903184719 98 221 1.0 1.0 0.00 0.00 0.00 57 1013.8
20260903184215 97 227 1.0 1.0 0.00 0.00 0.00 60 1013.9
20260903183714 97 216 1.0 1.0 0.00 0.00 0.00 56 1014.0
20260903183209 98 219 2.0 2.0 0.00 0.00 0.00 57 1013.9
20260903182708 97 220 1.0 1.0 0.00 0.00 0.00 57 1014.2
20260903182204 97 232 1.0 1.0 0.00 0.00 0.00 57 1014.0
20260903181702 97 220 0.0 1.0 0.00 0.00 0.00 56 1013.8
20260903181156 96 229 0.0 0.0 0.00 0.00 0.00 59 1014.1
20260903180652 96 219 1.0 1.0 0.00 0.00 0.00 61 1014.3
20260903180146 96 227 1.0 1.0 0.00 0.00 0.00 59 1014.3
20260903175644 96 223 1.0 1.0 0.00 0.00 0.00 60 1014.3
20260903175139 95 260 1.0 2.0 0.00 0.00 0.00 62 1014.5
20260903174633 96 230 1.0 1.0 0.00 0.00 0.00 65 1014.4
20260903174128 96 224 1.0 1.0 0.00 0.00 0.00 61 1014.4
20260903173623 95 231 2.0 2.0 0.00 0.00 0.00 62 1014.4
20260903173120 95 217 0.0 0.0 0.00 0.00 0.00 60 1014.4
20260903172619 95 232 2.0 2.0 0.00 0.00 0.00 59 1014.4
20260903172115 96 215 1.0 1.0 0.00 0.00 0.00 61 1014.2
20260903171615 95 215 1.0 2.0 0.00 0.00 0.00 60 1014.6
20260903171111 94 216 0.0 1.0 0.00 0.00 0.00 62 1014.7
20260903170609 93 217 1.0 1.0 0.00 0.00 0.00 67 1014.7
20260903170105 94 274 2.0 2.0 0.00 0.00 0.00 63 1014.8
20260903165602 93 192 2.0 2.0 0.00 0.00 0.00 62 1014.7